Printer-friendly version

IAU Minor Planet Center

Minor Planet Center

MPEC 2004-Q66 : COMET C/2004 L1 (LINEAR)

The following Minor Planet Electronic Circular may be linked-to from your own Web pages, but must not otherwise be redistributed electronically.


Read MPEC 2004-Q65 Read MPEC 2004-Q67


M.P.E.C. 2004-Q66                                Issued 2004 Aug. 30, 14:29 UT

     The Minor Planet Electronic Circulars contain information on unusual
         minor planets and routine data on comets.  They are published
   on behalf of Commission 20 of the International Astronomical Union by the
          Minor Planet Center, Smithsonian Astrophysical Observatory,
                          Cambridge, MA 02138, U.S.A.

                  Supported in part by the Brinson Foundation
             Prepared using the Tamkin Foundation Computer Network

                              MPC@CFA.HARVARD.EDU
          URL http://cfa-www.harvard.edu/iau/mpc.html  ISSN 1523-6714

                           COMET C/2004 L1 (LINEAR)

Observations:
    CK04L010   2004 08 06.50868 16 07 12.38 -15 07 03.8          17.5 T EQ066372
    CK04L010  C2004 08 13.46983 15 58 01.64 -15 24 34.7          18.2 T EQ066360
    CK04L010  C2004 08 13.47353 15 58 01.36 -15 24 34.9                 EQ066360
    CK04L010  C2004 08 13.48023 15 58 00.86 -15 24 36.0                 EQ066360

Observer details:
360 Kuma Kogen.  Observer A. Nakamura.  0.60-m f/5.8 Ritchey-Chretien + CCD.
372 Geisei.  Observer T. Seki.  0.60-m f/3.5 reflector.

Orbital elements:
    C/2004 L1 (LINEAR)
Epoch 2005 Mar. 11.0 TT = JDT 2453440.5
T 2005 Mar. 30.10827 TT                                 MPC
q   2.0468353            (2000.0)            P               Q
z  +0.0011787      Peri.  243.59833     -0.94639460     -0.01890843
 +/-0.0001277      Node    66.17849     +0.06298185     +0.96832284
e   0.9975875      Incl.  159.36043     -0.31681312     +0.24898465
Residuals in seconds of arc
040612 704  0.4-  0.3-    040614 734  0.9-  0.1+    040713 360  0.8-  0.1-
040612 704  0.9+  0.4-    040614 G90  0.9-  0.4-    040714 704  0.8+  0.8+
040612 704  1.5+  0.9-    040614 G90  0.5-  0.0     040714 704  0.2-  0.2-
040612 A50  0.5+  1.1+    040614 G90  0.2+  0.0     040714 704  0.9-  0.1-
040612 A50  0.7-  0.8+    040614 704  0.0   0.1+    040714 704  0.9+  0.2+
040612 A50  0.3-  0.9+    040614 704  0.1+  0.5+    040714 704  0.9+  0.1-
040612 A50  0.2-  1.3+    040614 704  0.0   0.1-    040714 561  1.1+  0.0
040612 A50  0.7+  1.8+    040614 704  0.2+  0.0     040714 561  0.1+  1.0+
040612 J95  1.1-  1.3-    040614 673  0.3+  0.1-    040714 561  0.9-  0.5+
040612 620  0.2-  0.0     040614 704  0.2-  0.2+    040715 704  0.2-  0.1+
040612 620  0.5+  0.2-    040614 673  0.2-  0.1-    040715 704  1.9+  0.2+
040613 859  0.7+  0.1-    040614 673  0.1+  0.2-    040715 704  1.6+  0.1-
040613 859  0.4-  0.2-    040614 704  0.4+  0.1+    040715 704  1.2+  0.0
040613 859  0.4+  0.3-    040614 704  0.0   0.4+    040715 704  0.9+  0.1+
040613 J95  1.0+  0.6+    040614 673  0.4-  0.3-    040716 704  0.6-  0.0
040613 859 (2.3-  1.3-)   040614 704  0.3+  0.0     040716 704  1.0-  0.4+
040613 J87  0.5+  1.0-    040614 704  0.1+  0.1+    040716 704  0.6-  0.8-
040613 J87  0.6-  0.3-    040614 926  1.3+  0.1+    040716 704  0.0   0.3-
040613 J87  0.1-  0.3+    040614 926  0.0   0.2-    040716 704  1.5+  0.0
040613 941  0.4+  0.2-    040614 926  0.6-  0.3+    040716 704  0.5+  0.2-
040613 941  0.3+  0.3-    040614 673  0.6-  0.4-    040716 704  0.6-  0.0
040613 941  0.2+  0.3-    040614 673  0.2+  0.3+    040716 704  0.7+  0.2-
040613 941  0.1+  0.2-    040614 204  0.4-  0.2-    040716 704  0.3+  0.2+
040613 G90  0.3-  0.3+    040616 704  0.5+  0.2+    040716 704  0.4+  0.3-
040613 G90  0.5-  0.3+    040616 704  0.0   0.4+    040716 704  0.7+  0.1-
040613 G90  0.8-  0.5+    040616 704  1.0-  0.3-    040716 704  1.1+  0.2+
040613 704  0.1-  0.1+    040621 461  0.2-  0.0     040716 704 (2.3+  0.5+)
040613 704  0.6-  0.8-    040621 461  0.2+  0.1-    040716 704  0.6+  0.8+
040613 704  0.3+  0.1+    040621 461  0.3-  0.2-    040716 704  0.2-  0.4-
040613 704  0.4+  0.3+    040625 213  1.0+  0.2+    040716 D74  1.1-  1.1-
040613 704  0.6+  0.3+    040625 213 (2.4+  0.6+)   040716 D74  0.2-  0.3-
040613 704  0.3+  0.4-    040626 859  1.3+  0.1-    040716 215  0.5+  0.1+
040613 704  0.2+  0.3+    040626 859  0.3-  0.5-    040718 704  0.2+  0.3+
040613 704  0.1-  0.1-    040626 859 (2.3+  2.5-)   040718 704 (2.6+  0.9+)
040613 704  0.5+  0.9+    040626 118  0.7-  0.4+    040718 704  1.0+  0.8+
040613 704 (3.3+  1.4+)   040626 118  0.1-  0.9+    040720 372  1.3-  1.2+
040613 926  0.5+  0.2+    040704 859 (2.1+  0.1+)   040720 372  0.5-  1.8+
040613 926  0.4-  0.2+    040704 859  1.5-  0.6-    040720 104  0.0   0.2+
040613 926  0.7-  0.2+    040704 859  0.7-  0.3-    040720 104  0.0   0.0
040613 651  1.2-  0.0     040704 859 (3.0+  0.1+)   040720 104  0.1+  0.3+
040613 651  0.2+  0.2+    040705 859  0.3-  0.8-    040720 104  0.6-  0.0
040613 651  0.7+  0.1+    040705 859  0.9-  0.4-    040730 859 (1.6-  2.2-)
040613 620  0.6-  0.7-    040706 859 (2.4-  0.7-)   040730 859 (2.7-  5.7+)
040613 557  0.0   0.1+    040706 859  0.7-  0.2-    040730 859 (1.1+  2.8-)
040613 557  0.4+  0.1-    040711 104  0.5-  0.2+    040731 442 (6.4-  9.3+)
040613 557  0.1+  0.1-    040711 104  1.1-  0.4-    040803 048  1.5-  0.8+
040613 557  0.1+  0.1+    040711 104  0.7-  0.6-    040806 372  0.9+  0.3-
040613 557  0.1+  0.1-    040711 104  0.5-  0.4-    040813 360  0.0   0.9-
040613 557  0.0   0.1-    040713 360  0.2-  0.1+    040813 360  0.1-  0.5-
040614 734  0.2+  0.0     040713 360  0.4-  0.2-    040813 360  0.2-  0.6-

     The "original" and "future" barycentric values of 1/a are +0.001441
and +0.001415 (+/- 0.000128) AU^-1, respectively.

Brian G. Marsden             (C) Copyright 2004 MPC           M.P.E.C. 2004-Q66

Read MPEC 2004-Q65 Read MPEC 2004-Q67


Our Web policy. Index to the CBAT/MPC/ICQ pages.


Valid HTML 4.01!